Regional Weather Roundup
Issued by NWS Jackson, KY

Home | Current Version | Previous Version | Graphics & Text | Print | Product List | Glossary On
Versions: 1 2 3 4 5 6 7 8 9 10 11 12 13 14 15 16 17 18 19 20 21 22 23 24 25 26 27 28 29 30 31 32 33 34 35 36 37 38 39 40 41 42 43 44 45 46 47 48 49 50
000
ASUS43 KJKL 220005
RWRJKL

EAST KENTUCKY HOURLY WEATHER ROUNDUP
NATIONAL WEATHER SERVICE JACKSON KY
800 PM EDT TUE OCT 21 2014

NOTE: "FAIR" INDICATES FEW OR NO CLOUDS BELOW 12,000 FEET WITH
NO SIGNIFICANT WEATHER AND/OR OBSTRUCTIONS TO VISIBILITY.

* THESE REPORTS ARE NOT UNDER NWS QUALITY CONTROL AND MAY NOT
  REPORT WEATHER SUCH AS PRECIPITATION AND FOG.

KYZ079-080-083-085-087-088-110-112-115-119-120-220100
...EASTERN KENTUCKY...

CITY           SKY/WX    TMP DP  RH WIND       PRES   REMARKS
JACKSON        CLOUDY    50  39  66 NW3       30.09R
6HR MIN TEMP:  50; 6HR MAX TEMP:  56;

LONDON         CLOUDY    54  40  59 N3        30.10R
6HR MIN TEMP:  54; 6HR MAX TEMP:  61;

SOMERSET*      CLOUDY    52  37  58 N8        30.11R
MONTICELLO*    MOCLDY    50  42  73 CALM      30.11R
6HR MIN TEMP:  50; 6HR MAX TEMP:  66; 6HR PCP:  0.01;

MIDDLESBORO*   CLOUDY    53  40  61 N7        30.09R
6HR MIN TEMP:  53; 6HR MAX TEMP:  64;

HARLAN APT*    MOCLDY    50  37  62 NE10      30.08S
BLACK MTN*       N/A     37  37 100 N7          N/A  WCI  32
PIKEVILLE APT* CLOUDY    48  39  71 NW3       30.07R
BIG SANDY*     CLOUDY    50  41  70 NW3       30.08R
6HR MIN TEMP:  50; 6HR MAX TEMP:  56;

MOREHEAD APT*  CLOUDY    50  41  71 NW3       30.12R
$$

KYZ035-036-041-042-044-050-067-078-099-220100
...CENTRAL KENTUCKY...

CITY           SKY/WX    TMP DP  RH WIND       PRES   REMARKS
MT STERLING*   CLOUDY    50  41  71 N5        30.12R
FLEMING/MASON* CLOUDY    49  43  78 N5        30.12R
DANVILLE*      CLOUDY    50  43  76 N3        30.12R
RICHMOND*      CLOUDY    52  39  62 N3        30.10S
LEXINGTON      CLOUDY    53  41  63 N5        30.11R
6HR MIN TEMP:  53; 6HR MAX TEMP:  58;

FRANKFORT      CLOUDY    53  39  59 N3        30.11R
6HR MIN TEMP:  53; 6HR MAX TEMP:  57;

$$

KYZ091>093-OHZ055-061-077-WVZ005-015-034-035-042-220100
...SOUTHERN OHIO/WEST VIRGINIA...

CITY           SKY/WX    TMP DP  RH WIND       PRES   REMARKS
COVINGTON      CLOUDY    52  40  63 N9        30.12R
COLUMBUS       CLOUDY    47  38  71 NW10      30.10R
DAYTON         CLOUDY    48  42  80 NE12      30.15R
WILMINGTON     CLOUDY    48  41  76 N10       30.12R
HUNTINGTON     CLOUDY    49  43  80 NW8       30.07R
CHARLESTON     RAIN      48  46  93 VRB3      30.05R FOG
PINEVILLE*     LGT RAIN  49  45  86 MISG      30.09R
BECKLEY        LGT RAIN  43  40  89 NW7       30.02R
BLUEFIELD      CLOUDY    45  39  79 NW8       30.03R
$$

VAZ002-007-008-TNZ017-027-036-066-071-220100
...SOUTHWEST VIRGINIA/EAST TENNESSEE...

CITY           SKY/WX    TMP DP  RH WIND       PRES   REMARKS
WISE*          CLOUDY    45  36  70 NW7       30.07S
JONESVILLE*    CLOUDY    52  37  58 N5        30.10R
ABINGDON*      CLOUDY    52  40  63 N5        30.05R
BRISTOL        MOCLDY    53  38  56 NW9       30.05R
KNOXVILLE      MOCLDY    59  42  53 N12       30.04R
OAK RIDGE      MOCLDY    59  43  55 VRB3      30.07R
CROSSVILLE     CLEAR     56  42  59 N9        30.07R
NASHVILLE      CLEAR     62  46  55 N8        30.06R
$$

...KEY TO REMARKS...
VSB - VISIBILITY IN MILES
WCI - WIND CHILL INDEX
HX  - HEAT INDEX

$$



USA.gov is the U.S. government's official web portal to all federal, state and local government web resources and services.